Location: Namasale
(1.5000°N, 32.6167°E)
Time: 14:46:09
(UTC+00:00)

Altair - Visible Passes

Search period start: 11 April 2021 00:00
Search period end: 21 April 2021 00:00
Orbit: 1501 x 1683 km, 47.2° (Epoch: 10 April)

Date Brightness Start Highest point End Pass type
(mag) Time Alt. Az. Time Alt. Az. Time Alt. Az.
11 Apr 9.7 00:29:29 10° SSE 00:32:19 11° SE 00:35:08 10° ESE visible
11 Apr 7.9 02:27:40 10° SSW 02:37:43 65° SE 02:47:26 10° NE visible
12 Apr 8.0 02:04:04 16° SSW 02:12:30 59° SE 02:22:09 10° NE visible
13 Apr 8.1 01:41:15 25° SSW 01:47:18 52° SE 01:56:49 10° NE visible
13 Apr 9.7 16:37:41 10° WSW 16:40:40 12° SW 16:43:41 10° SSW visible
14 Apr 8.3 01:18:24 35° S 01:22:05 47° SE 01:31:28 10° ENE visible
14 Apr 8.1 03:17:34 10° WSW 03:26:44 39° NW 03:35:41 10° NNE visible
14 Apr 9.6 16:11:06 10° WSW 16:15:22 14° SW 16:19:43 10° SSW visible
15 Apr 8.3 00:55:28 40° SSE 00:56:51 42° SE 01:06:02 10° ENE visible
15 Apr 8.0 02:53:33 15° WSW 03:01:32 44° NW 03:10:44 10° NNE visible
16 Apr 8.6 00:32:27 37° ESE 00:32:27 37° ESE 00:40:34 10° ENE visible
16 Apr 7.9 02:30:32 26° WSW 02:36:19 50° NW 02:45:45 10° NNE visible
17 Apr 8.9 00:09:21 29° ESE 00:09:21 29° ESE 00:15:03 10° ENE visible
17 Apr 7.7 02:07:26 39° WSW 02:11:06 56° NW 02:20:44 10° NNE visible
17 Apr 9.3 23:46:11 20° E 23:46:11 20° E 23:49:27 10° ENE visible
18 Apr 7.6 01:44:15 56° W 01:45:54 62° NW 01:55:41 10° NNE visible
18 Apr 9.7 23:22:54 12° E 23:22:54 12° E 23:23:48 10° E visible
19 Apr 7.5 01:20:58 69° NW 01:20:58 69° NW 01:30:36 10° NNE visible
19 Apr 9.1 03:22:06 10° WNW 03:26:00 13° NW 03:29:52 10° NNW visible
20 Apr 7.8 00:57:37 60° NNE 00:57:37 60° NNE 01:05:29 10° NE visible
20 Apr 9.1 02:55:39 10° WNW 03:00:40 15° NW 03:05:43 10° NNW visible
